Location: *
(34.2301°S, 73.0375°E)
Time: 08:41:10
(UTC+00:00)

Daily predictions for brighter satellites

Satellite Brightness Start Highest point End
(mag) Time Altitude Azimuth Time Altitude Azimuth Time Altitude Azimuth
Cosmos 1980 Rocket 2.3 12:27:04 10° N 12:32:42 69° ENE 12:38:25 10° SSE
Cosmos 1346 Rocket 2.7 12:30:49 10° N 12:34:34 87° W 12:38:23 10° S
Meteor 1-5 Rocket 4.1 12:29:57 10° N 12:35:10 61° E 12:40:28 10° SSE
Cosmos 2263 Rocket 3.2 12:31:00 10° S 12:35:33 24° ESE 12:40:04 10° ENE
SMAP 4.2 12:33:15 10° SE 12:37:02 24° E 12:40:46 10° NNE
COSMO-SKYMED 1 2.7 12:36:06 10° N 12:40:16 76° WNW 12:44:31 10° SSW
Cosmos 1484 Rocket 3.5 12:37:22 10° S 12:40:54 49° WSW 12:44:20 10° NNW
Cosmos 2227 Rocket 2.2 12:37:55 10° SSW 12:43:34 60° ESE 12:49:07 10° NNE
ACS3 Solar Sail 2.2 12:37:54 10° S 12:44:12 72° WSW 12:50:17 10° NNW
Cosmos 1697 Rocket 4.2 12:44:42 10° NW 12:49:50 35° WSW 12:55:00 10° S
Cosmos 2369 3.8 12:45:22 10° N 12:50:55 59° ENE 12:56:33 10° SSE
CBERS-1 4.3 12:45:57 10° S 12:51:05 71° WSW 12:56:09 10° NNW
Cosmos 1733 2.9 12:54:05 10° NNW 12:57:06 67° W 13:00:10 10° S
CZ-3 Stage 3 4.4 12:30:26 10° NW 12:59:41 50° NNE 13:06:45 12° E
Cosmos 1151 Rocket 4.0 12:56:19 10° SSE 12:59:47 24° ESE 13:03:13 10° NE
Cosmos 921 Rocket 3.5 12:56:22 10° S 13:00:11 33° ESE 13:03:57 10° NE
Thor Agena Rocket 4.4 12:59:04 10° S 13:03:59 51° WSW 13:08:53 10° NNW
Cosmos 2150 Rocket 4.4 12:59:48 10° NNW 13:05:01 66° WSW 13:10:14 10° S
Intercosmos 25 Rocket 4.2 13:02:21 10° S 13:06:30 54° E 13:13:00 10° NNE
IRS-P3 4.4 13:05:03 10° SSE 13:10:15 49° E 13:15:24 10° N
Cosmos 2341 Rocket 4.3 13:05:23 10° NNE 13:11:26 48° E 13:17:35 10° SSE
BREEZE-M DEB (TANK) 3.2 13:08:32 10° WSW 13:11:54 81° NW 13:21:58 10° NE
Cosmos 2360 Rocket 4.0 13:10:09 10° ENE 13:11:32 12° ENE 13:11:32 12° ENE
Cosmos 1707 2.2 13:10:59 10° S 13:14:23 78° E 13:17:45 10° N
IGS 5A 3.3 13:11:12 10° SSE 13:15:15 68° E 13:19:15 10° N
Cosmos 2322 Rocket 3.7 13:12:29 10° NE 13:15:52 16° E 13:15:54 16° E
Cosmos 962 Rocket 4.4 13:10:58 10° N 13:17:04 71° E 13:23:13 10° S
CZ-2D R/B 2.9 13:13:54 10° S 13:17:17 82° W 13:20:35 10° NNW
Cosmos 2098 4.5 13:14:32 10° N 13:17:43 87° WSW 13:21:39 10° S
Cosmos 2219 3.4 13:12:51 10° S 13:18:22 48° ESE 13:23:50 10° NE
Iridium 4 Rocket 3.2 13:17:14 10° N 13:21:57 81° W 13:26:22 10° S
AQUARIUS 4.5 13:19:07 16° SSE 13:22:25 44° E 13:26:39 10° N
Cosmos 2082 4.1 13:17:21 10° S 13:22:38 38° ESE 13:27:53 10° NE
SJ-6F 4.4 13:19:05 12° SSE 13:22:53 61° E 13:26:55 10° N
CENTAUR R/B 4.1 13:21:18 10° NNE 13:27:48 23° ENE 13:29:44 21° E
SL-16 R/B 2.6 13:23:42 10° N 13:28:58 41° ENE 13:31:31 26° SE
Cosmos 1066 Rocket 4.2 13:24:58 10° S 13:30:41 72° E 13:36:27 10° NNE
IRS-1C 4.5 13:29:52 10° S 13:35:13 67° WSW 13:40:30 10° NNW
Cosmos 1959 Rocket 4.5 13:33:17 10° N 13:39:29 64° E 13:45:41 10° SSE
Meteor 2-10 4.0 13:34:26 10° N 13:39:31 87° W 13:44:49 10° S
Cosmos 1821 Rocket 4.3 13:34:37 10° NNE 13:40:35 44° E 13:44:35 21° SSE
Cosmos 1536 2.5 13:42:05 10° N 13:45:50 68° E 13:46:18 60° SE
ARIANE 5 R/B 3.5 13:43:49 10° S 13:48:52 47° WSW 13:53:49 10° NW
Meteor 1-14 Rocket 4.3 13:55:54 10° N 14:01:51 87° W 14:06:37 16° S
DELTA 2 R/B (1) 3.4 14:03:26 10° WNW 14:09:00 80° NNE 14:09:38 69° E
Meteor 2-19 Rocket 4.4 14:03:30 10° S 14:09:35 59° E 14:15:33 10° NNE
Cosmos 2278 3.7 14:05:56 10° NNW 14:11:38 82° WSW 14:13:31 45° SSE
Cosmos 2333 Rocket 2.3 14:06:51 10° N 14:11:58 57° NE 14:11:58 57° NE
USA 267 3.3 14:11:39 40° SSE 14:14:17 76° SW 14:20:51 10° NW
ATLAS 2AS CENTAUR R/B 2.9 14:09:49 10° SSW 14:17:08 56° SE 14:17:40 55° ESE
Cosmos 2263 Rocket 3.5 14:14:18 10° SW 14:19:31 39° WNW 14:24:43 10° N
SL-08 R/B 4.2 14:28:36 10° N 14:33:02 47° W 14:37:37 10° SSW
Cosmos 2360 Rocket 3.3 14:49:51 10° NNW 14:53:20 39° NW 14:53:20 39° NW
Cosmos 2322 Rocket 3.2 14:53:49 10° NW 14:57:46 42° WNW 14:57:46 42° WNW
SL-16 R/B 4.1 15:08:35 10° WNW 15:13:08 24° WSW 15:13:25 24° SW
CENTAUR R/B 3.4 15:09:15 10° NW 15:16:54 64° WNW 15:16:54 64° WNW
USA 59 Rocket 4.1 21:35:05 15° SSE 21:35:05 15° SSE 21:36:21 10° SSE
ACS3 Solar Sail 3.7 22:35:19 10° ENE 22:40:08 24° ESE 22:40:30 24° ESE
USA 59 Rocket 3.5 23:20:59 20° S 23:20:59 20° S 23:25:28 10° SSE
MOS 1-B Rocket 4.2 23:34:47 10° NNE 23:42:05 87° ESE 23:43:15 64° S
Cosmos 2360 Rocket 3.9 23:48:55 14° S 23:52:47 28° ESE 23:57:36 10° ENE
